Location: Brno
(49.2000°N, 16.6330°E)
Time: 03:41:32
(UTC+01:00)

Cosmos 1603 - Visible Passes

Search period start: 27 November 2014 00:00
Search period end: 07 December 2014 00:00
Orbit: 831 x 860 km, 71.0° (Epoch: 25 November)

Date Brightness Start Highest point End Pass type
(mag) Time Alt. Az. Time Alt. Az. Time Alt. Az.
30 Nov 6.1 19:10:02 10° N 19:10:14 11° N 19:10:14 11° N visible
01 Dec 6.0 18:56:14 10° N 18:56:44 11° N 18:56:44 11° N visible
02 Dec 5.9 18:42:26 10° N 18:43:15 12° N 18:43:15 12° N visible
03 Dec 5.8 18:28:38 10° N 18:29:47 13° N 18:29:47 13° N visible
04 Dec 5.7 18:14:50 10° N 18:16:21 13° NNE 18:16:21 13° NNE visible
04 Dec 6.2 19:57:54 10° NNW 19:58:15 12° NNW 19:58:15 12° NNW visible
05 Dec 5.6 18:01:03 10° N 18:02:57 13° NNE 18:02:57 13° NNE visible
05 Dec 6.0 19:44:05 10° NNW 19:44:51 14° NNW 19:44:51 14° NNW visible
06 Dec 5.5 17:47:15 10° N 17:49:34 13° NNE 17:49:34 13° NNE visible
06 Dec 5.8 19:30:15 10° NNW 19:31:28 16° NNW 19:31:28 16° NNW visible
